This is the latest recevied weather packets stored in our database for station/object KO4T-4. If no packets are shown the sender has not sent any weather packets the latest 10 day(s).
| Time | Temp. | Humidity | Pressure | Rain* | Wind** | Luminosity | Snow |
|---|---|---|---|---|---|---|---|
| 1777920602 | 25.56° C | 35% | 1014.1 hPa | 0 mm | - | - | - |
| 1777920302 | 25° C | 38% | 1014.1 hPa | 0 mm | - | - | - |
| 1777920002 | 24.44° C | 35% | 1014.2 hPa | 0 mm | - | - | - |
| 1777919702 | 24.44° C | 36% | 1014.3 hPa | 0 mm | - | - | - |
| 1777919402 | 23.89° C | 37% | 1014.4 hPa | 0 mm | - | - | - |
| 1777919102 | 23.89° C | 35% | 1014.5 hPa | 0 mm | - | - | - |
| 1777918802 | 23.89° C | 36% | 1014.5 hPa | 0 mm | - | - | - |
| 1777918502 | 23.89° C | 38% | 1014.5 hPa | 0 mm | - | - | - |
| 1777918202 | 23.89° C | 38% | 1014.6 hPa | 0 mm | - | - | - |
| 1777917901 | 23.89° C | 37% | 1014.6 hPa | 0 mm | - | - | - |
| 1777917602 | 23.89° C | 38% | 1014.7 hPa | 0 mm | - | - | - |
| 1777917302 | 23.89° C | 39% | 1014.7 hPa | 0 mm | - | - | - |
| 1777917002 | 23.33° C | 39% | 1014.7 hPa | 0 mm | - | - | - |
| 1777916702 | 23.33° C | 36% | 1014.7 hPa | 0 mm | - | - | - |
| 1777916402 | 23.89° C | 34% | 1014.7 hPa | 0 mm | - | - | - |
| 1777916102 | 23.89° C | 36% | 1014.7 hPa | 0 mm | - | - | - |
| 1777915802 | 24.44° C | 34% | 1014.7 hPa | 0 mm | - | - | - |
| 1777915501 | 24.44° C | 38% | 1014.8 hPa | 0 mm | - | - | - |
| 1777915202 | 23.89° C | 35% | 1014.7 hPa | 0 mm | - | - | - |
| 1777914902 | 23.89° C | 34% | 1014.8 hPa | 0 mm | - | - | - |
| 1777914602 | 23.33° C | 39% | 1015 hPa | 0 mm | - | - | - |
| 1777914302 | 23.33° C | 39% | 1015.1 hPa | 0 mm | - | - | - |
| 1777914002 | 23.33° C | 35% | 1015.1 hPa | 0 mm | - | - | - |
| 1777913701 | 23.33° C | 37% | 1015.3 hPa | 0 mm | - | - | - |
| 1777913402 | 23.33° C | 36% | 1015.3 hPa | 0 mm | - | - | - |
* Rain latest hour (hover to see other rain measurements)
** Current wind speed in m/s (hover to see current wind gust speed)